Regional Weather Roundup
Issued by NWS

Home | Current Version | Previous Version | Graphics & Text | Print | Product List | Glossary On
Versions: 1 2 3 4 5 6 7 8 9 10 11 12 13 14 15 16 17 18 19 20 21 22 23 24 25 26 27 28 29 30 31 32 33 34 35 36 37 38 39 40 41 42 43 44 45 46 47 48 49
000
ASUS45 KSLC 260210
RWRUT

UTAH REGIONAL WEATHER ROUNDUP
NATIONAL WEATHER SERVICE SALT LAKE CITY UT
800 PM MDT SAT APR 25 2015

UTZ001>011-023>025-260300-

NORTHERN UTAH

CITY           SKY/WX    TMP DP  RH WIND       PRES   REMARKS
BRIGHAM CITY   CLOUDY    51  39  64 S20       29.71R
HILL AFB       LGT RAIN  44  41  91 S3        29.73S
LOGAN          CLOUDY    53  34  48 SE12      29.69R
OGDEN          LGT RAIN  45  43  93 S8        29.72S
PROVO AIRPORT  CLOUDY    46  39  76 NW5       29.70S
SALT LAKE CITY CLOUDY    47  43  86 N9        29.70F
VERNAL         CLOUDY    46  40  79 NE3       29.75S
WENDOVER       CLOUDY    46  39  76 W8        29.73S
HEBER CITY     CLOUDY    39  36  87 CALM      29.72S
WEST JORDAN    CLOUDY    45  45 100 NW6       29.72S

$$

UTZ012>022-026-027-260300-

SOUTHERN/CENTRAL UTAH

CITY           SKY/WX    TMP DP  RH WIND       PRES   REMARKS
BLANDING       CLOUDY    52  33  48 SW16G25   29.81R
BRYCE CANYON   FOG       35  33  92 SE9       29.77S VSB 3/4 WCI  28
CEDAR CITY     CLOUDY    39  37  92 SW9       29.76R WCI  33
DELTA          CLOUDY    44  43  95 S10       29.71S
HANKSVILLE     CLOUDY    52  37  58 SW13      29.71R
MILFORD        CLOUDY    43  29  57 S17       29.71S
MOAB/CYNLANDS  LGT RAIN  48  45  89 NE9       29.68F
PRICE          CLOUDY    44  38  79 E5        29.71F
ST GEORGE      CLOUDY    50  45  81 N9        29.76R
KANAB          CLOUDY    43  43 100 W6        29.79F

$$

REGIONAL REPORTS     COLORADO/ARIZONA

CITY           SKY/WX    TMP DP  RH WIND       PRES   REMARKS
CRAIG, CO      CLOUDY    50  36  58 SE3       29.76R
GRAND JUNCTION CLOUDY    47  44  90 E7        29.73F FOG
RIFLE          CLOUDY    46  41  82 W9        29.78R
MONTROSE       CLOUDY    45  42  89 N3        29.79S
CORTEZ         PTCLDY    49  38  65 N7        29.76F
PAGE, AZ       CLOUDY    53  43  68 N9        29.74R
GRAND CANYON   RAIN      40  38  93 SW12G22   29.80S FOG     WCI  33
KINGMAN        CLOUDY    52  47  83 S8        29.73F
FLAGSTAFF      LGT RAIN  35  35 100 VRB5      29.82S FOG     WCI  31

$$

REGIONAL REPORTS    NEVADA/IDAHO/WYOMING

CITY           SKY/WX    TMP DP  RH WIND       PRES   REMARKS
LAS VEGAS, NV  LGT RAIN  54  49  83 W16G26    29.70F
ELY            MOCLDY    39  35  86 N5        29.77R
ELKO           MOCLDY    46  32  58 NW12      29.81R
POCATELLO, ID  CLOUDY    51  34  52 SW7       29.73S
BURLEY         CLOUDY    45  33  63 W15G23    29.77R
EVANSTON, WY   LGT RAIN  37  35  92 N12       29.75S FOG     WCI  29
ROCK SPRINGS   CLOUDY    47  31  53 E12       29.74S
KEMMERER       CLOUDY    37  32  81 N3        29.77S

$$


USA.gov is the U.S. government's official web portal to all federal, state and local government web resources and services.